Location: La Brionne
(46.1728°N, 1.7849°E)
Time: 12:06:32
(UTC+00:00)

Cosmos 2219 Rocket - Pass Details

Date: 24 October 2021
Orbit: 826 x 848 km, 71.0° (Epoch: 01 December)

Event Time Altitude Azimuth Distance (km) Brightness Sun altitude
Rises 19:52:54 0° 211° (SSW) 3,354 5.5 -31.9°
Reaches altitude 10° 19:55:20 10° 214° (SSW) 2,426 4.7 -32.3°
Enters shadow 19:57:16 22° 218° (SW) 1,719 3.9 -32.7°
